Regional Weather Roundup
Issued by NWS

Home | Current Version | Previous Version | Graphics & Text | Print | Product List | Glossary On
Versions: 1 2 3 4 5 6 7 8 9 10 11 12 13 14 15 16 17 18 19 20 21 22 23 24 25 26 27 28 29
000
ASUS45 KGTF 031710
RWRMT
MONTANA HOURLY WEATHER ROUNDUP
NATIONAL WEATHER SERVICE GREAT FALLS MT
1100 AM MDT SUN MAY 03 2015

NOTE: "FAIR" INDICATES FEW OR NO CLOUDS BELOW 12000 FEET WITH NO
SIGNIFICANT WEATHER AND/OR OBSTRUCTIONS TO VISIBILITY.

MTZ001>007-043-031800-
WEST OF THE DIVIDE

CITY           SKY/WX    TMP DP  RH WIND       PRES   REMARKS
KALISPELL      SUNNY     55  22  27 VRB6      30.02F
MISSOULA       SUNNY     52  26  36 CALM      30.01F
BUTTE          SUNNY     52  23  32 CALM      30.00F
DEER LODGE       N/A     54  28  37 CALM      30.03F
EUREKA           N/A     48  21  34 CALM      30.07F
HAMILTON         N/A     54  21  28 VRB2      29.99F
LIBBY            N/A     50  21  32 CALM      30.05F
$$

MTZ008-052>055-031800-
SOUTHWEST MONTANA

CITY           SKY/WX    TMP DP  RH WIND       PRES   REMARKS
BOZEMAN        SUNNY     54  37  52 N6        30.00F
DILLON         SUNNY     52  30  43 E8        29.99S
$$

MTZ009-010-012-014-046-048-049-054-031800-
EAST SLOPES AND CENTRAL MONTANA

CITY           SKY/WX    TMP DP  RH WIND       PRES   REMARKS
CUT BANK       SUNNY     49  24  37 SE10G20   30.02S
GREAT FALLS    SUNNY     50  29  44 CALM      30.02S
MALMSTROM AFB  SUNNY     51  30  43 SE3       30.03S
HELENA         SUNNY     51  30  44 CALM      30.00F
$$

MTZ011-013-016-021-045-047-050-051-031800-
NORTH CENTRAL MONTANA

CITY           SKY/WX    TMP DP  RH WIND       PRES   REMARKS
HAVRE          MOSUNNY   55  24  30 E9        30.06R
LEWISTOWN      SUNNY     54  31  41 E6        30.03F
CHINOOK          N/A     54  23  30 NW5       30.07S
FORT BENTON      N/A     55  28  35 NE3       30.03F
$$

MTZ017>020-022>042-056>058-061-062-031800-
EASTERN PLAINS

CITY           SKY/WX    TMP DP  RH WIND       PRES   REMARKS
BAKER          MOSUNNY   58  31  35 VRB7      30.05R
BILLINGS       MOSUNNY   54  30  40 E10G18    30.04F
GLASGOW        CLOUDY    55  29  36 N10       30.07R
JORDAN           N/A     58  20  22 N7        30.06R
LIVINGSTON     MOSUNNY   55  35  47 NE14G21   30.01F
MILES CITY     CLOUDY    55  31  39 E5        30.06R
SIDNEY         SUNNY     57  30  35 NW12G20   30.06R
WOLF POINT     SUNNY     59  25  27 W7        30.06S
BIG TIMBER       N/A     52  30  43 E13G18    30.04S
FORSYTH          N/A     55  30  38 E3        30.06S
PLENTYWOOD       N/A     54  27  35 NW18G24   30.04R
POPLAR           N/A     55  27  33 NW9G16    30.06S
$$

REGIONAL REPORTS...DAKOTAS

CITY           SKY/WX    TMP DP  RH WIND       PRES   REMARKS
WILLISTON      LGT RAIN  58  25  28 NW16G22   30.04R
MINOT          SUNNY     58  25  28 W20       29.98R
DICKINSON      MOSUNNY   57  28  33 NW8G20    30.01R
BEACH          CLOUDY    54  27  35 N13       30.06R
CROSBY         FAIR      54  28  37 NW18G24   30.02R
WATFORD CITY   FAIR      55  27  33 NW14G21   30.02R
BISMARCK       PTSUNNY   61  25  25 N13G21    29.99S
GRAND FORKS    CLOUDY    60  35  39 W17       29.90R
FARGO          CLOUDY    62  36  37 N23G33    29.89R
BUFFALO SD       N/A     56  34  43 NE10      29.98R
RAPID CITY     SUNNY     64  36  35 N20       30.00R
$$

REGIONAL REPORTS...WYOMING/IDAHO/WASHINGTON

CITY           SKY/WX    TMP DP  RH WIND       PRES   REMARKS
GILLETTE       MOSUNNY   59  37  44 N12G20    30.02R
SHERIDAN       PTSUNNY   57  37  47 E6        30.04R
BUFFALO WY     MOSUNNY   53  37  54 N7        30.05R
CODY           SUNNY     52  34  50 N13G21    30.01S
YELLOWSTONE LA   N/A     51  25  36 VRB5      30.06S
IDAHO FALLS    PTSUNNY   64  36  35 SW9       29.96S
SALMON         SUNNY     54  28  37 CALM      29.94F
BOISE          SUNNY     59  34  39 CALM      29.90S
SPOKANE        MOSUNNY   55  26  32 NE10      30.00S
$$

REGIONAL REPORTS...ALBERTA

CITY           SKY/WX    TMP DP  RH WIND       PRES   REMARKS
EDMONTON       PTSUNNY   48  37  66 CALM      30.04S
CALGARY        MOSUNNY   46  28  49 SE6       30.05S
LETHBRIDGE     PTSUNNY   46  30  53 NE5       30.06S
$$

REGIONAL REPORTS...SASKATCHEWAN

CITY           SKY/WX    TMP DP  RH WIND       PRES   REMARKS
SWIFT CURRENT  MOSUNNY   48  28  46 N16G22    30.05S
REGINA         PTSUNNY   52  34  50 NW16G22   30.02R
SASKATOON      MOSUNNY   52  34  50 NW13      30.03R
$$



USA.gov is the U.S. government's official web portal to all federal, state and local government web resources and services.